Location: Oshawa
(43.9000°N, 78.8670°W)
Time: 13:08:47
(UTC-04:00)

Cosmos 1707 Rocket - Visible Passes

Search period start: 28 August 2015 00:00
Search period end: 07 September 2015 00:00
Orbit: 606 x 633 km, 82.5° (Epoch: 26 August)

Date Brightness Start Highest point End Pass type
(mag) Time Alt. Az. Time Alt. Az. Time Alt. Az.
28 Aug 6.0 02:14:47 20° NNE 02:14:47 20° NNE 02:16:17 10° NNE visible
28 Aug 6.0 03:51:57 12° NW 03:51:57 12° NW 03:52:45 10° NNW visible
29 Aug 5.9 02:32:14 21° N 02:32:14 21° N 02:33:47 10° N visible
30 Aug 5.9 02:49:39 19° NNW 02:49:39 19° NNW 02:51:02 10° N visible
31 Aug 6.5 01:29:55 12° NNE 01:29:55 12° NNE 01:30:21 10° NNE visible
31 Aug 6.1 03:07:04 14° NNW 03:07:04 14° NNW 03:08:00 10° NNW visible
01 Sep 6.4 01:47:19 15° NNE 01:47:19 15° NNE 01:48:05 10° NNE visible
02 Sep 6.4 02:04:43 15° N 02:04:43 15° N 02:05:34 10° N visible
03 Sep 6.4 02:22:07 14° N 02:22:07 14° N 02:22:48 10° N visible
04 Sep 6.5 02:39:30 11° NNW 02:39:30 11° NNW 02:39:44 10° NNW visible
05 Sep 6.7 01:19:43 11° NNE 01:19:43 11° NNE 01:19:55 10° NNE visible
06 Sep 6.7 01:37:05 12° N 01:37:05 12° N 01:37:21 10° N visible
